Temperature
-0 -0 -0 -0 0 0 0 1 1 1 1 1 1 1 1 1 1 1 1 1 1 1 1 1 1 1 1 1 1 1 1 1 0 1 1 1 1 1 1 1 1 1 2
-1 -1 -1 -1 -1 -1 -0 -0 -0 0 0 1 1 1 1 1 1 1 1 1 1 1 1 1 1 1 1 1 1 0 0 0 -0 -0 0 0 0 0 0 1 1 1 1
-2 -2 -2 -2 -1 -1 -1 -1 -1 -0 -0 -0 0 0 0 0 0 0 0 0 0 0 0 0 0 0 0 -0 -0 -0 -0 -0 -1 -1 -1 -1 -1 -1 -1 -0 -0 -0 -0
-3 -3 -2 -2 -2 -2 -2 -2 -1 -1 -1 -1 -1 -1 -0 -0 -1 -0 -0 -0 -0 -0 -1 -1 -1 -1 -1 -1 -1 -1 -1 -1 -2 -2 -2 -2 -2 -1 -1 -1 -1 -1 -1
-3 -3 -3 -3 -3 -2 -2 -2 -2 -2 -2 -2 -1 -1 -1 -1 -1 -1 -1 -1 -1 -1 -1 -1 -1 -1 -1 -1 -1 -2 -2 -2 -2 -3 -3 -3 -2 -2 -2 -2 -2 -2 -2
-4 -4 -4 -3 -3 -3 -3 -3 -3 -3 -2 -2 -2 -2 -2 -2 -2 -2 -2 -2 -2 -2 -2 -2 -2 -2 -2 -2 -2 -2 -2 -3 -3 -3 -3 -3 -3 -3 -3 -3 -4 -3 -3
-4 -4 -4 -4 -4 -4 -4 -4 -3 -3 -3 -3 -3 -3 -3 -3 -2 -2 -3 -3 -3 -3 -3 -3 -3 -3 -3 -3 -3 -3 -3 -3 -4 -4 -4 -4 -4 -4 -4 -4 -5 -5 -4
-5 -5 -4 -4 -4 -4 -4 -4 -4 -4 -4 -4 -4 -4 -4 -3 -3 -3 -3 -4 -4 -4 -4 -4 -4 -3 -3 -4 -4 -4 -4 -4 -4 -5 -5 -5 -5 -5 -5 -5 -5 -5 -5
-5 -5 -5 -5 -5 -5 -5 -5 -5 -5 -5 -5 -5 -4 -4 -4 -4 -4 -4 -4 -4 -4 -5 -4 -4 -4 -4 -4 -5 -5 -5 -5 -5 -5 -5 -5 -5 -5 -5 -6 -6 -6 -6
-6 -6 -5 -5 -5 -5 -5 -6 -6 -5 -5 -5 -5 -5 -5 -5 -5 -5 -5 -5 -5 -5 -5 -5 -5 -5 -5 -5 -5 -6 -6 -6 -6 -6 -6 -6 -6 -6 -6 -6 -6 -7 -7
-6 -6 -6 -6 -6 -6 -6 -6 -6 -6 -6 -6 -6 -6 -6 -6 -6 -6 -6 -6 -6 -6 -6 -6 -6 -6 -6 -6 -6 -6 -6 -7 -7 -7 -7 -7 -7 -7 -7 -7 -7 -7 -7
-7 -7 -7 -7 -7 -7 -7 -7 -7 -7 -7 -7 -7 -7 -7 -7 -7 -6 -6 -6 -7 -7 -7 -7 -7 -7 -7 -7 -7 -7 -7 -7 -8 -8 -8 -8 -7 -7 -7 -7 -7 -8 -8
-7 -7 -7 -7 -8 -7 -7 -7 -8 -8 -8 -8 -7 -7 -7 -7 -7 -7 -7 -7 -7 -7 -7 -7 -7 -7 -8 -8 -8 -8 -8 -8 -8 -8 -8 -8 -8 -8 -8 -8 -8 -8 -8
-8 -8 -8 -8 -8 -8 -8 -8 -8 -8 -8 -8 -8 -8 -8 -8 -8 -8 -8 -8 -8 -8 -8 -8 -8 -8 -8 -8 -8 -8 -9 -9 -9 -9 -9 -9 -9 -9 -9 -9 -9 -9 -9
-9 -9 -9 -9 -9 -9 -9 -9 -9 -9 -9 -9 -9 -9 -9 -9 -8 -8 -9 -9 -9 -9 -9 -9 -9 -9 -9 -9 -9 -9 -9 -9 -9 -9 -9 -10 -10 -10 -10 -10 -10 -10 -10
-10 -10 -10 -10 -10 -10 -10 -10 -10 -10 -10 -9 -9 -9 -9 -9 -9 -9 -9 -9 -9 -9 -9 -9 -9 -9 -9 -9 -9 -9 -9 -10 -10 -10 -10 -10 -10 -10 -10 -10 -10 -10 -10
-10 -11 -11 -11 -11 -11 -11 -11 -11 -11 -10 -10 -10 -10 -9 -9 -9 -9 -9 -10 -10 -10 -10 -10 -10 -10 -10 -10 -10 -10 -10 -10 -10 -10 -11 -11 -11 -11 -11 -11 -11 -11 -11
-11 -11 -11 -11 -12 -12 -12 -11 -11 -11 -11 -11 -11 -11 -10 -10 -10 -10 -10 -10 -10 -10 -10 -10 -10 -10 -10 -10 -10 -11 -11 -11 -11 -11 -11 -11 -11 -11 -11 -11 -11 -11 -11
-12 -12 -12 -12 -12 -12 -12 -12 -12 -12 -12 -12 -11 -11 -11 -11 -11 -11 -11 -11 -11 -11 -11 -11 -11 -11 -11 -11 -11 -11 -11 -11 -11 -12 -12 -12 -12 -12 -12 -12 -12 -12 -12
-12 -12 -12 -12 -12 -12 -12 -12 -12 -12 -12 -12 -12 -12 -12 -12 -12 -12 -12 -11 -11 -11 -11 -11 -11 -11 -12 -12 -12 -12 -12 -12 -12 -12 -12 -12 -12 -12 -12 -12 -12 -12 -12
-13 -13 -13 -13 -13 -13 -13 -13 -13 -13 -13 -13 -12 -12 -12 -12 -12 -12 -12 -12 -12 -12 -12 -12 -12 -12 -12 -12 -12 -12 -12 -12 -12 -12 -12 -12 -12 -12 -12 -12 -12 -12 -12
-13 -13 -13 -13 -13 -13 -13 -13 -13 -13 -13 -13 -13 -13 -13 -13 -13 -13 -13 -12 -12 -12 -12 -12 -12 -12 -12 -12 -13 -13 -13 -13 -13 -13 -13 -13 -13 -13 -13 -13 -13 -13 -13
-14 -14 -14 -14 -14 -14 -14 -14 -14 -14 -14 -14 -13 -13 -13 -13 -13 -13 -13 -13 -13 -13 -13 -13 -13 -13 -13 -13 -13 -13 -13 -13 -13 -13 -13 -13 -13 -13 -13 -13 -13 -13 -13
-14 -14 -14 -14 -14 -14 -14 -14 -14 -14 -14 -14 -14 -14 -14 -14 -14 -13 -13 -13 -13 -13 -13 -13 -13 -13 -13 -13 -13 -13 -13 -13 -13 -13 -13 -13 -13 -13 -13 -13 -13 -13 -13
-14 -14 -14 -14 -14 -14 -14 -14 -14 -14 -14 -14 -14 -14 -14 -14 -14 -14 -14 -14 -14 -13 -13 -13 -13 -13 -13 -13 -14 -13 -13 -13 -13 -13 -14 -14 -13 -13 -13 -13 -13 -13 -13
-15 -15 -15 -15 -15 -15 -15 -15 -15 -15 -15 -15 -15 -14 -14 -14 -14 -14 -14 -14 -14 -14 -14 -14 -14 -14 -14 -14 -14 -14 -14 -13 -13 -14 -14 -14 -14 -13 -13 -13 -13 -13 -13
Wind_Speed
5 5 5 4 4 4 4 4 4 4 5 5 6 5 5 6 6 6 5 5 5 4 4 4 4 3 3 2 2 3 3 3 5 4 4 4 5 6 6 7 7 8 8
4 4 4 4 4 4 4 4 4 5 5 5 5 6 6 6 6 6 6 6 6 6 5 5 5 4 4 3 3 3 3 3 4 5 4 4 5 6 6 7 7 8 8
3 4 4 4 5 5 5 5 5 4 4 4 5 6 6 6 7 7 7 7 7 7 6 6 6 5 5 4 4 4 3 3 3 4 5 4 5 5 6 6 6 6 8
3 4 4 4 5 5 4 4 5 5 5 5 5 5 5 6 7 6 6 7 7 6 6 7 7 7 6 6 5 5 4 4 4 4 4 4 5 5 5 5 5 5 6
3 4 4 4 4 4 4 4 4 5 5 5 5 5 5 5 6 6 6 6 6 6 6 6 6 7 7 6 5 5 5 4 4 4 5 5 5 4 5 5 6 6 7
3 4 3 3 3 4 4 4 4 5 5 5 5 5 6 5 5 7 6 5 6 6 6 5 5 6 7 8 8 8 7 7 6 6 6 6 7 6 5 5 6 7 6
3 3 3 3 3 3 3 3 4 5 5 5 5 6 6 6 7 7 7 6 6 6 6 6 5 5 6 6 7 7 8 9 9 8 8 8 8 7 6 7 7 8 8
3 3 3 3 3 3 3 4 4 4 4 5 5 6 6 6 7 8 7 6 6 6 7 7 7 6 6 6 5 6 6 7 7 7 8 8 8 8 8 8 9 9 9
3 3 3 3 3 4 4 4 4 4 4 4 4 5 6 6 7 8 7 5 5 6 6 7 7 7 7 8 6 6 6 6 6 8 9 10 11 11 10 7 7 7 8
3 3 3 3 3 4 4 4 3 3 4 4 4 4 5 5 7 8 8 5 5 5 5 6 7 8 9 8 7 6 7 6 5 5 6 8 8 9 10 9 7 7 8
3 3 2 3 3 3 3 3 3 3 3 3 4 4 4 5 7 8 8 5 5 5 5 4 5 8 8 9 8 6 7 6 6 6 6 6 6 5 6 7 7 7 8
2 2 2 2 2 2 2 2 3 3 3 3 3 3 3 4 5 7 8 7 6 5 5 4 5 7 7 8 7 6 7 6 5 5 5 5 5 5 5 6 7 8 9
1 1 1 1 1 2 2 3 3 3 3 3 3 3 3 3 4 6 7 6 6 4 4 5 6 7 6 5 6 6 6 5 5 5 6 6 5 6 6 6 7 8 9
1 1 1 1 1 1 1 2 3 3 3 3 3 3 3 3 3 3 3 3 4 4 3 5 6 6 5 5 5 5 5 5 5 5 6 5 5 5 6 6 6 6 6
1 1 1 1 1 1 1 2 3 3 4 4 4 4 4 4 4 5 4 4 4 4 3 3 3 3 4 4 4 4 4 4 5 5 5 5 5 6 6 6 6 6 7
1 1 1 1 1 1 1 1 2 3 3 4 4 4 4 5 5 5 6 6 6 6 4 4 4 4 4 4 4 4 4 5 5 5 6 6 6 6 6 6 6 7 8
2 2 1 1 1 1 1 1 1 2 2 2 3 4 4 5 5 5 5 5 5 5 4 4 4 4 4 4 5 5 5 5 5 5 6 6 6 7 7 7 7 7 8
2 2 2 2 2 2 2 2 2 2 2 2 2 3 3 4 4 4 4 3 4 4 4 4 4 4 4 5 5 5 5 5 5 5 6 6 7 7 7 8 8 8 8
2 1 1 1 2 2 2 2 2 2 2 2 2 2 3 3 3 3 3 3 3 4 4 4 4 4 5 5 5 5 5 6 6 6 6 7 7 7 8 8 8 10 10
2 2 2 2 2 2 2 2 2 2 2 2 3 3 2 2 2 3 2 3 3 4 4 4 4 5 5 5 5 5 5 6 6 6 6 7 7 7 8 9 9 9 9
2 2 2 2 2 2 2 2 2 2 3 3 3 3 4 3 3 4 3 4 4 4 4 4 5 5 5 5 5 6 7 6 6 6 7 7 7 7 8 8 9 9 9
2 2 2 2 2 2 2 2 2 3 3 4 3 4 5 4 4 4 4 4 4 4 5 5 5 5 5 5 6 6 7 7 7 7 7 7 7 8 8 8 9 9 9
2 2 2 2 2 3 3 2 2 3 3 3 3 3 3 4 4 4 5 5 5 5 5 6 6 6 7 7 8 7 8 8 8 8 8 8 8 8 8 9 10 11 10
2 2 2 2 2 2 3 3 3 3 3 4 4 4 4 4 5 5 5 5 5 6 6 6 7 8 9 9 9 9 10 11 11 10 11 10 9 9 9 9 10 11 10
2 2 2 2 3 3 3 3 4 4 4 4 4 4 5 5 5 5 5 5 6 6 7 8 8 8 10 11 11 11 13 14 14 12 11 10 10 10 10 10 10 10 10
2 3 3 3 3 3 4 4 4 4 5 5 5 5 5 5 5 6 5 5 6 6 7 8 9 10 11 11 12 13 14 15 15 15 12 10 9 9 10 9 11 10 11
Wind_Direction
188 189 190 191 189 190 188 194 195 191 187 184 187 188 191 191 191 194 199 193 196 198 199 202 210 210 206 212 216 221 231 241 248 270 278 283 281 288 296 299 302 302 300
192 188 192 194 196 198 200 202 200 195 192 191 191 194 197 197 197 200 203 204 206 206 206 208 213 211 214 213 216 226 233 243 251 264 277 281 282 285 290 293 298 299 298
192 193 197 200 203 205 206 204 203 200 196 193 196 201 203 204 205 207 209 211 212 212 211 213 215 214 217 220 224 228 234 244 251 258 274 279 281 284 287 286 289 294 296
200 203 208 211 211 210 210 209 207 205 204 202 202 205 208 209 210 210 210 212 214 216 216 219 219 219 221 221 226 228 232 240 249 255 267 277 279 283 281 287 292 293 296
215 216 221 221 213 207 208 211 211 211 211 206 204 205 209 210 210 208 210 211 214 218 220 222 223 224 230 229 228 229 230 236 245 254 262 272 273 278 281 291 292 300 297
229 231 230 221 215 209 210 212 208 209 209 208 209 208 211 214 206 209 214 215 215 218 223 225 225 222 225 231 237 236 234 236 242 252 259 259 266 274 282 283 288 296 295
242 241 234 224 218 218 214 214 213 211 208 212 216 214 217 216 205 210 214 220 220 222 223 225 228 227 226 230 234 234 240 244 245 249 255 257 265 268 276 278 278 284 286
246 244 238 223 222 222 218 221 223 218 216 219 221 220 223 220 209 213 214 223 225 226 226 225 226 227 226 230 236 242 247 249 249 252 254 261 266 268 267 272 277 283 284
250 252 243 229 225 223 223 226 227 221 223 226 224 223 225 223 214 213 214 221 223 226 229 229 227 229 224 227 236 243 251 259 260 254 259 264 266 266 265 268 270 275 284
264 261 254 236 225 226 228 227 231 223 224 225 228 227 228 228 219 214 213 215 220 224 230 231 227 226 226 228 235 237 244 253 258 264 265 264 263 259 256 254 258 264 277
273 263 248 240 233 229 226 223 220 219 219 221 225 230 232 231 223 219 216 216 216 221 228 232 229 222 229 236 241 242 245 258 262 263 266 266 267 265 264 262 259 258 263
267 257 248 243 241 231 216 216 212 205 210 220 222 231 233 228 225 218 219 226 227 226 230 233 231 229 237 242 245 242 251 262 259 260 261 265 267 269 271 272 271 269 267
265 267 264 258 247 231 218 212 211 209 210 218 219 226 236 236 223 219 223 227 230 236 236 229 231 235 244 248 244 248 253 252 250 253 258 264 270 272 275 275 275 274 272
260 268 265 252 257 247 235 222 219 217 216 219 222 226 235 241 232 219 217 222 223 231 232 224 228 235 240 243 246 248 248 247 250 255 261 266 269 270 269 268 270 272 274
254 263 263 251 241 254 253 250 242 239 235 231 230 231 230 235 237 235 235 235 230 225 225 228 225 227 232 234 240 245 246 246 250 252 257 262 264 265 267 267 268 270 269
250 255 252 246 239 245 256 282 295 275 282 271 258 251 252 249 245 242 242 241 241 229 230 226 228 232 237 242 246 249 249 250 252 253 255 258 261 265 268 268 267 266 267
244 254 247 243 236 239 247 259 283 311 306 289 275 270 262 254 250 249 242 237 233 230 232 233 237 239 242 246 249 252 256 256 256 256 257 258 261 263 265 266 266 268 269
255 258 255 244 245 246 249 254 257 264 280 285 286 284 282 272 265 264 257 248 238 236 236 238 242 245 247 248 251 253 256 259 257 258 259 260 261 262 263 264 264 266 269
270 266 257 254 250 249 252 256 257 260 267 279 291 289 297 289 283 279 263 246 244 246 247 248 250 252 253 253 255 255 256 256 258 258 261 262 261 261 261 262 264 266 267
267 284 276 262 253 248 247 249 253 256 263 268 275 282 288 286 271 270 262 258 255 257 257 258 259 259 259 258 258 258 259 259 259 259 261 263 263 262 263 265 265 266 267
281 280 282 271 263 258 255 256 258 257 260 267 273 276 272 264 263 264 263 263 260 260 261 262 263 263 261 260 260 258 259 261 261 262 263 264 264 264 264 264 265 266 268
280 277 266 261 264 261 264 264 263 262 263 267 271 273 275 271 265 264 265 266 267 265 266 265 264 263 261 261 260 260 259 261 262 263 264 265 265 265 265 265 265 266 266
278 272 263 262 261 266 273 269 263 261 262 264 268 270 270 270 269 268 269 270 269 270 270 266 264 264 264 262 259 256 257 259 259 259 263 265 265 264 264 263 263 266 265
268 263 260 262 263 260 260 263 263 264 265 266 268 269 270 272 273 274 275 274 273 274 272 268 264 263 265 267 265 262 260 262 262 258 257 259 262 263 263 262 263 263 265
264 259 260 263 263 262 263 266 267 269 269 269 270 271 273 275 277 278 278 276 276 274 274 273 269 267 266 268 268 267 268 270 270 265 258 255 258 260 262 264 263 266 265
262 263 262 263 263 263 263 266 268 270 271 273 273 274 274 275 275 276 276 274 274 276 276 275 271 272 274 273 271 272 274 274 273 271 265 257 258 260 262 262 264 263 266
Height
1473 1475 1477 1479 1481 1483 1485 1487 1490 1492 1494 1496 1499 1501 1503 1505 1508 1510 1512 1513 1515 1516 1518 1519 1521 1522 1523 1524 1525 1525 1526 1527 1526 1525 1526 1525 1525 1525 1524 1524 1523 1522 1521
1470 1472 1473 1475 1477 1479 1481 1483 1486 1488 1490 1492 1495 1497 1499 1501 1503 1505 1507 1508 1510 1511 1513 1514 1516 1517 1518 1519 1520 1520 1521 1522 1522 1520 1520 1521 1520 1520 1519 1519 1518 1517 1516
1467 1469 1470 1472 1473 1475 1477 1480 1482 1484 1485 1488 1489 1492 1494 1496 1498 1500 1501 1503 1505 1506 1507 1509 1511 1512 1513 1514 1515 1515 1516 1516 1517 1516 1515 1515 1515 1515 1514 1514 1513 1512 1511
1465 1466 1467 1468 1470 1471 1474 1475 1477 1479 1481 1483 1485 1487 1489 1491 1493 1494 1496 1497 1499 1501 1502 1504 1505 1507 1508 1509 1510 1510 1511 1511 1512 1511 1510 1510 1510 1510 1509 1508 1507 1506 1505
1461 1462 1463 1465 1466 1468 1469 1471 1473 1474 1476 1478 1480 1482 1484 1485 1487 1489 1490 1492 1493 1495 1497 1498 1499 1501 1502 1503 1504 1505 1506 1506 1506 1506 1505 1505 1505 1505 1504 1503 1502 1501 1499
1458 1459 1460 1461 1463 1464 1465 1467 1468 1470 1471 1473 1475 1476 1478 1480 1481 1484 1485 1486 1488 1489 1491 1492 1494 1495 1496 1497 1499 1499 1500 1501 1501 1501 1500 1500 1499 1500 1499 1498 1497 1495 1493
1456 1456 1457 1458 1459 1460 1461 1462 1464 1465 1466 1468 1470 1471 1473 1474 1476 1478 1480 1481 1483 1484 1485 1486 1488 1489 1490 1492 1492 1493 1494 1495 1495 1496 1494 1494 1494 1494 1494 1493 1492 1491 1488
1452 1453 1453 1454 1455 1456 1457 1458 1459 1461 1462 1463 1465 1466 1468 1469 1471 1473 1475 1476 1477 1478 1480 1481 1483 1484 1485 1486 1486 1487 1487 1488 1489 1489 1489 1489 1489 1489 1489 1488 1486 1484 1483
1449 1449 1449 1450 1451 1452 1453 1454 1455 1456 1457 1459 1460 1461 1463 1464 1466 1468 1470 1471 1472 1473 1475 1476 1477 1478 1479 1481 1481 1481 1481 1482 1483 1483 1483 1483 1483 1483 1483 1482 1480 1479 1476
1445 1446 1446 1447 1448 1448 1449 1450 1451 1453 1454 1455 1456 1457 1458 1459 1461 1463 1464 1465 1466 1468 1469 1470 1471 1473 1474 1475 1476 1476 1476 1476 1477 1477 1477 1477 1477 1477 1477 1476 1475 1474 1472
1444 1444 1444 1444 1445 1445 1446 1447 1448 1449 1450 1451 1452 1453 1454 1455 1456 1457 1459 1460 1461 1462 1463 1465 1466 1468 1469 1470 1471 1471 1471 1472 1472 1471 1471 1471 1471 1471 1470 1470 1470 1469 1467
1441 1441 1441 1441 1442 1442 1443 1444 1445 1445 1446 1447 1448 1449 1450 1451 1452 1453 1454 1456 1457 1458 1458 1460 1461 1463 1464 1465 1465 1466 1466 1467 1467 1466 1466 1465 1465 1465 1465 1464 1464 1463 1462
1438 1438 1438 1438 1439 1439 1440 1441 1441 1442 1443 1443 1444 1445 1446 1447 1448 1449 1450 1451 1452 1453 1454 1455 1457 1458 1459 1460 1460 1461 1462 1462 1461 1461 1460 1460 1460 1460 1459 1458 1458 1457 1456
1436 1436 1436 1436 1436 1436 1437 1438 1438 1438 1439 1439 1440 1441 1442 1443 1444 1445 1446 1447 1448 1449 1450 1451 1452 1453 1454 1455 1455 1456 1456 1457 1456 1456 1455 1455 1455 1454 1453 1453 1452 1451 1449
1433 1433 1433 1433 1433 1434 1434 1434 1435 1435 1436 1436 1436 1437 1438 1439 1440 1441 1442 1443 1444 1445 1446 1447 1448 1449 1449 1450 1451 1451 1452 1452 1451 1451 1450 1450 1449 1449 1448 1447 1446 1445 1443
1431 1431 1431 1431 1431 1431 1431 1432 1432 1433 1433 1433 1434 1434 1435 1436 1437 1438 1439 1440 1441 1442 1443 1443 1443 1444 1445 1446 1446 1446 1447 1446 1446 1446 1445 1445 1444 1444 1443 1442 1441 1440 1438
1429 1429 1429 1429 1429 1429 1429 1429 1429 1430 1430 1430 1431 1431 1432 1433 1433 1434 1435 1436 1437 1438 1438 1439 1439 1440 1441 1441 1441 1441 1441 1441 1441 1441 1440 1440 1439 1438 1437 1436 1435 1434 1432
1427 1427 1427 1427 1427 1427 1427 1427 1426 1426 1426 1427 1428 1428 1429 1429 1430 1431 1432 1432 1433 1434 1434 1435 1435 1436 1436 1436 1436 1436 1436 1436 1436 1435 1435 1434 1433 1433 1431 1430 1429 1428 1426
1425 1425 1425 1424 1425 1425 1425 1424 1424 1424 1424 1424 1425 1426 1426 1426 1427 1427 1428 1428 1428 1429 1430 1430 1431 1431 1431 1431 1431 1431 1431 1430 1430 1430 1429 1428 1428 1427 1425 1424 1423 1421 1420
1423 1423 1423 1423 1422 1422 1422 1422 1422 1422 1422 1422 1422 1422 1423 1423 1423 1424 1424 1424 1424 1424 1425 1425 1425 1425 1425 1425 1425 1425 1425 1424 1424 1424 1423 1422 1421 1420 1419 1418 1417 1415 1413
1421 1421 1421 1421 1420 1420 1420 1420 1419 1419 1419 1419 1419 1419 1419 1419 1419 1419 1419 1419 1419 1419 1420 1420 1420 1420 1420 1420 1420 1419 1419 1418 1418 1418 1417 1416 1415 1414 1413 1412 1410 1408 1406
1419 1419 1418 1418 1418 1418 1417 1417 1417 1417 1416 1416 1416 1416 1416 1416 1415 1415 1415 1415 1415 1415 1415 1415 1414 1414 1414 1414 1414 1413 1413 1412 1412 1411 1410 1410 1409 1407 1406 1405 1403 1401 1400
1417 1417 1416 1416 1416 1415 1415 1415 1414 1414 1413 1413 1413 1413 1412 1412 1412 1411 1411 1410 1410 1410 1410 1409 1409 1409 1408 1408 1408 1407 1406 1406 1405 1405 1404 1403 1402 1401 1399 1398 1396 1394 1393
1415 1414 1414 1413 1413 1413 1412 1412 1411 1411 1410 1410 1409 1409 1408 1408 1407 1407 1406 1406 1405 1405 1404 1404 1403 1403 1403 1402 1401 1401 1400 1399 1399 1398 1397 1396 1395 1394 1392 1391 1389 1388 1386
1412 1412 1411 1410 1410 1409 1409 1408 1408 1407 1407 1406 1405 1405 1404 1403 1403 1402 1402 1401 1400 1400 1399 1399 1398 1397 1397 1396 1395 1394 1394 1393 1392 1391 1390 1389 1388 1387 1386 1384 1382 1381 1379
1409 1408 1408 1407 1406 1406 1405 1404 1404 1403 1403 1402 1401 1400 1400 1399 1398 1398 1397 1396 1395 1395 1394 1393 1392 1391 1391 1390 1389 1388 1387 1387 1386 1385 1384 1383 1382 1380 1379 1377 1376 1374 1372